Time,TemperatureF,DewpointF,PressureIn,WindDirection,WindDirectionDegrees,WindSpeedMPH,WindSpeedGustMPH,Humidity,HourlyPrecipIn,Conditions,Clouds,dailyrainin,SoftwareType,DateUTC
2013-01-27 00:00:00,56.0,51.0,28.97,North,-999,-999.0,-999.0,82,-99.99,,,-99.99,,2013-01-27 00:00:00,
2013-01-27 00:41:00,56.0,51.0,28.97,North,-999,-999.0,-999.0,82,-99.99,,,-99.99,,2013-01-27 00:41:00,
2013-01-27 00:51:00,56.0,51.0,28.97,North,-999,-999.0,-999.0,82,-99.99,,,-99.99,,2013-01-27 00:51:00,
2013-01-27 01:00:00,52.0,47.0,28.98,North,-999,-999.0,-999.0,85,-99.99,,,-99.99,,2013-01-27 01:00:00,
2013-01-27 01:41:00,52.0,47.0,28.98,North,-999,-999.0,-999.0,85,-99.99,,,-99.99,,2013-01-27 01:41:00,
2013-01-27 01:51:00,52.0,47.0,28.98,North,-999,-999.0,-999.0,85,-99.99,,,-99.99,,2013-01-27 01:51:00,
2013-01-27 02:00:00,50.0,47.0,29.00,North,-999,-999.0,-999.0,87,-99.99,,,-99.99,,2013-01-27 02:00:00,
2013-01-27 02:41:00,50.0,47.0,29.00,North,-999,-999.0,-999.0,87,-99.99,,,-99.99,,2013-01-27 02:41:00,
2013-01-27 02:52:00,50.0,47.0,29.00,North,-999,-999.0,-999.0,87,-99.99,,,-99.99,,2013-01-27 02:52:00,
2013-01-27 03:00:00,50.0,45.0,29.01,North,-999,-999.0,-999.0,85,-99.99,,,-99.99,,2013-01-27 03:00:00,
2013-01-27 03:41:00,50.0,45.0,29.01,North,-999,-999.0,-999.0,85,-99.99,,,-99.99,,2013-01-27 03:41:00,
2013-01-27 03:51:00,50.0,45.0,29.01,North,-999,-999.0,-999.0,85,-99.99,,,-99.99,,2013-01-27 03:51:00,
2013-01-27 04:00:00,49.0,42.0,29.00,North,-999,-999.0,-999.0,78,-99.99,,,-99.99,,2013-01-27 04:00:00,
2013-01-27 04:41:00,49.0,42.0,29.00,North,-999,-999.0,-999.0,78,-99.99,,,-99.99,,2013-01-27 04:41:00,
2013-01-27 04:51:00,49.0,42.0,29.00,North,-999,-999.0,-999.0,78,-99.99,,,-99.99,,2013-01-27 04:51:00,
2013-01-27 05:00:00,47.0,42.0,29.02,North,-999,-999.0,-999.0,82,-99.99,,,-99.99,,2013-01-27 05:00:00,
2013-01-27 05:41:00,47.0,42.0,29.02,North,-999,-999.0,-999.0,82,-99.99,,,-99.99,,2013-01-27 05:41:00,
2013-01-27 05:51:00,47.0,42.0,29.02,North,-999,-999.0,-999.0,82,-99.99,,,-99.99,,2013-01-27 05:51:00,
2013-01-27 06:00:00,42.0,37.0,29.07,North,-999,-999.0,-999.0,82,-99.99,,,-99.99,,2013-01-27 06:00:00,
2013-01-27 06:41:00,42.0,37.0,29.07,North,-999,-999.0,-999.0,82,-99.99,,,-99.99,,2013-01-27 06:41:00,
2013-01-27 06:51:00,42.0,37.0,29.07,North,-999,-999.0,-999.0,82,-99.99,,,-99.99,,2013-01-27 06:51:00,
2013-01-27 07:00:00,41.0,36.0,29.09,North,-999,-999.0,-999.0,81,-99.99,,,-99.99,,2013-01-27 07:00:00,
2013-01-27 07:41:00,41.0,36.0,29.09,North,-999,-999.0,-999.0,81,-99.99,,,-99.99,,2013-01-27 07:41:00,
2013-01-27 07:51:00,41.0,36.0,29.09,North,-999,-999.0,-999.0,81,-99.99,,,-99.99,,2013-01-27 07:51:00,
2013-01-27 08:00:00,42.0,35.0,29.11,North,-999,-999.0,-999.0,77,-99.99,,,-99.99,,2013-01-27 08:00:00,
2013-01-27 08:41:00,42.0,35.0,29.11,North,-999,-999.0,-999.0,77,-99.99,,,-99.99,,2013-01-27 08:41:00,
2013-01-27 08:52:00,42.0,35.0,29.11,North,-999,-999.0,-999.0,77,-99.99,,,-99.99,,2013-01-27 08:52:00,
2013-01-27 09:00:00,42.0,-99.9,29.14,North,-999,-999.0,-999.0,-999,-99.99,,,-99.99,,2013-01-27 09:00:00,
2013-01-27 09:42:00,42.0,-99.9,29.14,North,-999,-999.0,-999.0,-999,-99.99,,,-99.99,,2013-01-27 09:42:00,
2013-01-27 09:52:00,42.0,-99.9,29.14,North,-999,-999.0,-999.0,-999,-99.99,,,-99.99,,2013-01-27 09:52:00,
2013-01-27 10:00:00,41.0,34.0,29.16,North,-999,-999.0,-999.0,76,-99.99,,,-99.99,,2013-01-27 10:00:00,
2013-01-27 10:41:00,41.0,34.0,29.16,North,-999,-999.0,-999.0,76,-99.99,,,-99.99,,2013-01-27 10:41:00,
2013-01-27 10:51:00,41.0,34.0,29.16,North,-999,-999.0,-999.0,76,-99.99,,,-99.99,,2013-01-27 10:51:00,
2013-01-27 11:00:00,41.0,35.0,29.18,North,-999,-999.0,-999.0,76,-99.99,,,-99.99,,2013-01-27 11:00:00,
2013-01-27 11:41:00,41.0,35.0,29.18,North,-999,-999.0,-999.0,76,-99.99,,,-99.99,,2013-01-27 11:41:00,
2013-01-27 11:52:00,41.0,35.0,29.18,North,-999,-999.0,-999.0,76,-99.99,,,-99.99,,2013-01-27 11:52:00,
2013-01-27 12:00:00,43.0,34.0,29.16,North,-999,-999.0,-999.0,70,-99.99,,,-99.99,,2013-01-27 12:00:00,
2013-01-27 12:41:00,43.0,34.0,29.16,North,-999,-999.0,-999.0,70,-99.99,,,-99.99,,2013-01-27 12:41:00,
2013-01-27 12:52:00,43.0,34.0,29.16,North,-999,-999.0,-999.0,70,-99.99,,,-99.99,,2013-01-27 12:52:00,
2013-01-27 13:00:00,45.0,-99.9,29.15,North,-999,-999.0,-999.0,-999,-99.99,,,-99.99,,2013-01-27 13:00:00,
2013-01-27 13:42:00,45.0,-99.9,29.15,North,-999,-999.0,-999.0,-999,-99.99,,,-99.99,,2013-01-27 13:42:00,
2013-01-27 13:52:00,45.0,-99.9,29.15,North,-999,-999.0,-999.0,-999,-99.99,,,-99.99,,2013-01-27 13:52:00,
2013-01-27 14:00:00,39.0,38.0,29.20,North,-999,-999.0,-999.0,98,-99.99,,,-99.99,,2013-01-27 14:00:00,
2013-01-27 14:42:00,39.0,38.0,29.20,North,-999,-999.0,-999.0,98,-99.99,,,-99.99,,2013-01-27 14:42:00,
2013-01-27 14:52:00,39.0,38.0,29.20,North,-999,-999.0,-999.0,98,-99.99,,,-99.99,,2013-01-27 14:52:00,
2013-01-27 15:00:00,40.0,36.0,29.23,North,-999,-999.0,-999.0,84,-99.99,,,-99.99,,2013-01-27 15:00:00,
2013-01-27 15:42:00,40.0,36.0,29.23,North,-999,-999.0,-999.0,84,-99.99,,,-99.99,,2013-01-27 15:42:00,
2013-01-27 15:52:00,40.0,36.0,29.23,North,-999,-999.0,-999.0,84,-99.99,,,-99.99,,2013-01-27 15:52:00,
2013-01-27 16:00:00,41.0,36.0,29.25,North,-999,-999.0,-999.0,82,-99.99,,,-99.99,,2013-01-27 16:00:00,
2013-01-27 16:41:00,41.0,36.0,29.25,North,-999,-999.0,-999.0,82,-99.99,,,-99.99,,2013-01-27 16:41:00,
2013-01-27 16:52:00,41.0,36.0,29.25,North,-999,-999.0,-999.0,82,-99.99,,,-99.99,,2013-01-27 16:52:00,
2013-01-27 17:00:00,41.0,37.0,29.29,North,-999,-999.0,-999.0,86,-99.99,,,-99.99,,2013-01-27 17:00:00,
2013-01-27 17:41:00,41.0,37.0,29.29,North,-999,-999.0,-999.0,86,-99.99,,,-99.99,,2013-01-27 17:41:00,
2013-01-27 17:52:00,41.0,37.0,29.29,North,-999,-999.0,-999.0,86,-99.99,,,-99.99,,2013-01-27 17:52:00,
2013-01-27 18:00:00,43.0,38.0,29.32,North,-999,-999.0,-999.0,79,-99.99,,,-99.99,,2013-01-27 18:00:00,
2013-01-27 18:41:00,43.0,38.0,29.32,North,-999,-999.0,-999.0,79,-99.99,,,-99.99,,2013-01-27 18:41:00,
2013-01-27 18:51:00,43.0,38.0,29.32,North,-999,-999.0,-999.0,79,-99.99,,,-99.99,,2013-01-27 18:51:00,
2013-01-27 19:00:00,44.0,38.0,29.34,North,-999,-999.0,-999.0,79,-99.99,,,-99.99,,2013-01-27 19:00:00,
2013-01-27 19:31:00,44.0,38.0,29.34,North,-999,-999.0,-999.0,79,-99.99,,,-99.99,,2013-01-27 19:31:00,
2013-01-27 19:41:00,44.0,38.0,29.34,North,-999,-999.0,-999.0,79,-99.99,,,-99.99,,2013-01-27 19:41:00,
2013-01-27 19:51:00,44.0,38.0,29.34,North,-999,-999.0,-999.0,79,-99.99,,,-99.99,,2013-01-27 19:51:00,
2013-01-27 20:00:00,44.0,36.0,29.34,North,-999,-999.0,-999.0,74,-99.99,,,-99.99,,2013-01-27 20:00:00,
2013-01-27 20:41:00,44.0,36.0,29.34,North,-999,-999.0,-999.0,74,-99.99,,,-99.99,,2013-01-27 20:41:00,
2013-01-27 20:51:00,44.0,36.0,29.34,North,-999,-999.0,-999.0,74,-99.99,,,-99.99,,2013-01-27 20:51:00,
2013-01-27 21:00:00,44.0,37.0,29.36,North,-999,-999.0,-999.0,76,-99.99,,,-99.99,,2013-01-27 21:00:00,
2013-01-27 21:41:00,44.0,37.0,29.36,North,-999,-999.0,-999.0,76,-99.99,,,-99.99,,2013-01-27 21:41:00,
2013-01-27 21:51:00,44.0,37.0,29.36,North,-999,-999.0,-999.0,76,-99.99,,,-99.99,,2013-01-27 21:51:00,
2013-01-27 22:00:00,44.0,37.0,29.39,North,-999,-999.0,-999.0,77,-99.99,,,-99.99,,2013-01-27 22:00:00,
2013-01-27 22:42:00,44.0,37.0,29.39,North,-999,-999.0,-999.0,77,-99.99,,,-99.99,,2013-01-27 22:42:00,
2013-01-27 22:51:00,44.0,37.0,29.39,North,-999,-999.0,-999.0,77,-99.99,,,-99.99,,2013-01-27 22:51:00,
2013-01-27 23:00:00,44.0,37.0,29.41,North,-999,-999.0,-999.0,78,-99.99,,,-99.99,,2013-01-27 23:00:00,
2013-01-27 23:41:00,44.0,37.0,29.41,North,-999,-999.0,-999.0,78,-99.99,,,-99.99,,2013-01-27 23:41:00,
2013-01-27 23:52:00,44.0,37.0,29.41,North,-999,-999.0,-999.0,78,-99.99,,,-99.99,,2013-01-27 23:52:00,